Back to catalog

STARLINK-34978

AliveCommunicationsSSO
NORAD 65435·PAYLOAD·🇺🇸 United States

Launched Sep 3, 2025 from Vandenberg Space Force Base

Loading…

Next Passes (next 24 hours)

TLE

FreshSource: CelesTrak SupGP

Epoch: Sep 14, 2026, 22:37 UTC

1 65435C 25194B   26257.94284722  .00082773  00000+0  25707-2 0  2570
2 65435  97.2843 107.7085 0001998  95.0112  98.4230 15.33381277    18

Track STARLINK-34978 in real time with AllMySat

Download on the App Store